Concordia, KS

10:12 AM CDT on March 25, 2017 (GMT -0500)
Blosser Municipal

Weather History for KCNK - February, 2013

Change the Weather History Date:

Wednesday, February 13, 2013

  Actual Average Record
Temperature  
Mean Temperature 41 °F 32 °F  
Max Temperature 55 °F 43 °F 72 °F (1921)
Min Temperature 26 °F 22 °F -21 °F (1905)
Degree Days  
Heating Degree Days 24 33  
Month to date heating degree days 365 446  
Since 1 July heating degree days 3473 3750  
Cooling Degree Days 0 0  
Month to date cooling degree days 0 0  
Year to date cooling degree days 0 0  
Moisture  
Dew Point 21 °F    
Average Humidity 52    
Maximum Humidity 75    
Minimum Humidity 28    
Precipitation  
Precipitation 0.00 in 0.03 in 0.84 in (1911)
Month to date precipitation 0.04 0.34  
Year to date precipitation 0.73 0.92  
Snow  
Snow 0.00 in 0.20 in 3.10 in (1978)
Month to date snowfall 0.0 2.8  
Year to date snowfall 5.2 8.5  
Since 1 July snowfall 13.7 15.0  
Snow Depth 0.00 in    
Sea Level Pressure  
Sea Level Pressure 29.90 in    
Wind  
Wind Speed 10 mph (West)    
Max Wind Speed 21 mph    
Max Gust Speed 26 mph    
Visibility 10 miles    
Events      
T = Trace of Precipitation, MM = Missing Value Source: NWS Daily Summary

Daily Weather History Graph

Daily Weather History Graph

Search for Another Location

Airport or City:

Trip Planner

Search our weather history database for the weather conditions in past years. The results will help you decide how hot, cold, wet, or windy it might be!

Date:

Astronomy

Feb. 13, 2013 Rise Set
Actual Time 7:24 AM CST 6:05 PM CST
Civil Twilight 6:57 AM CST 6:32 PM CST
Nautical Twilight 6:25 AM CST 7:04 PM CST
Astronomical Twilight 5:54 AM CST 7:35 PM CST
Moon 8:56 AM CST (2/13) 10:08 PM CST (2/13)
Length of Visible Light 11h 35m
Length of Day
10h 40m
Waxing Crescent, 14% of the Moon is Illuminated
Feb 13
Waxing Crescent
Feb 17
First Quarter
Feb 25
Full
Mar 4
Last Quarter
Mar 11
New

Hourly Weather History & Observations

Time (CST) Temp. Windchill Dew Point Humidity Pressure Visibility Wind Dir Wind Speed Gust Speed Precip Events Conditions
12:55 AM 27.0 °F 19.5 °F 16.0 °F 63% 29.98 in 10.0 mi West 6.9 mph - N/A   Clear
1:55 AM 28.0 °F 20.0 °F 16.0 °F 61% 29.97 in 10.0 mi West 8.1 mph - N/A   Clear
2:55 AM 27.0 °F 18.7 °F 17.1 °F 66% 29.96 in 10.0 mi West 8.1 mph - N/A   Clear
3:55 AM 27.0 °F 18.0 °F 18.0 °F 69% 29.95 in 10.0 mi West 9.2 mph - N/A   Clear
4:55 AM 27.0 °F 17.3 °F 18.0 °F 69% 29.94 in 10.0 mi West 10.4 mph - N/A   Clear
5:55 AM 27.0 °F 19.5 °F 18.0 °F 69% 29.92 in 10.0 mi West 6.9 mph - N/A   Clear
6:55 AM 26.1 °F 15.0 °F 19.0 °F 75% 29.94 in 10.0 mi West 12.7 mph - N/A   Clear
7:55 AM 27.0 °F 17.3 °F 19.0 °F 72% 29.96 in 10.0 mi West 10.4 mph - N/A   Clear
8:55 AM 30.9 °F 20.7 °F 21.9 °F 69% 29.94 in 10.0 mi West 13.8 mph - N/A   Clear
9:55 AM 35.1 °F 26.9 °F 23.0 °F 61% 29.94 in 10.0 mi West 11.5 mph - N/A   Clear
10:55 AM 39.9 °F 33.9 °F 23.0 °F 51% 29.93 in 10.0 mi West 9.2 mph - N/A   Clear
11:55 AM 46.0 °F 39.9 °F 23.0 °F 40% 29.91 in 10.0 mi West 13.8 mph - N/A   Clear
12:55 PM 48.9 °F - 23.0 °F 36% 29.88 in 10.0 mi WSW 10.4 mph - N/A   Clear
1:55 PM 52.0 °F - 21.0 °F 30% 29.85 in 10.0 mi WSW 11.5 mph 23.0 mph N/A   Clear
2:55 PM 54.0 °F - 21.9 °F 29% 29.83 in 10.0 mi West 12.7 mph 20.7 mph N/A   Clear
3:55 PM 54.0 °F - 21.0 °F 28% 29.82 in 10.0 mi WNW 17.3 mph 25.3 mph N/A   Clear
4:55 PM 54.0 °F - 21.9 °F 29% 29.82 in 10.0 mi NW 11.5 mph - N/A   Clear
5:55 PM 48.9 °F - 23.0 °F 36% 29.83 in 10.0 mi West 9.2 mph - N/A   Clear
6:55 PM 45.0 °F 40.6 °F 21.9 °F 40% 29.84 in 10.0 mi WSW 8.1 mph - N/A   Clear
7:55 PM 43.0 °F 37.7 °F 23.0 °F 45% 29.85 in 10.0 mi WSW 9.2 mph - N/A   Clear
8:55 PM 39.9 °F 35.8 °F 21.9 °F 49% 29.86 in 10.0 mi West 5.8 mph - N/A   Clear
9:55 PM 39.0 °F 33.4 °F 23.0 °F 53% 29.86 in 10.0 mi West 8.1 mph - N/A   Clear
10:55 PM 37.9 °F 31.5 °F 23.0 °F 55% 29.87 in 10.0 mi West 9.2 mph - N/A   Clear
11:55 PM 37.0 °F 29.8 °F 24.1 °F 59% 29.88 in 10.0 mi West 10.4 mph - N/A   Partly Cloudy